Location: Gunung Kajang
(2.4167°N, 113.7167°E)
Time: 16:19:33
(UTC+00:00)

Cosmos 2082 Rocket - Pass Details

Date: 29 May 2022
Orbit: 833 x 854 km, 71.0° (Epoch: 06 July)

Event Time Altitude Azimuth Distance (km) Brightness Sun altitude
Exits shadow 20:02:02 14° 147° (SSE) 2,158 4.3 -31.2°
Maximum altitude 20:05:15 23° 105° (ESE) 1,729 4.2 -30.5°
Drops below altitude 10° 20:09:35 10° 54° (NE) 2,466 5.5 -29.6°
Sets 20:12:31 0° 40° (NE) 3,402 6.3 -28.9°
